Location: Besson
(46.4709°N, 3.2640°E)
Time: 07:22:49
(UTC+00:00)

Daily predictions for brighter satellites

Satellite Brightness Start Highest point End
(mag) Time Altitude Azimuth Time Altitude Azimuth Time Altitude Azimuth
SMAP 4.5 17:39:01 10° S 17:43:28 45° W 17:47:57 10° NNW
Envisat 3.4 17:38:49 10° S 17:43:53 72° WSW 17:48:59 10° NNW
COSMO-SKYMED 1 2.7 17:40:10 10° NNE 17:44:27 54° E 17:48:42 10° S
Cosmos 1805 Rocket 4.2 17:40:53 10° SSE 17:44:51 34° E 17:48:48 10° NNE
Sich 1 3.9 17:44:50 10° SSE 17:48:26 27° E 17:52:03 10° NNE
Cosmos 1515 Rocket 4.2 17:44:21 10° NNW 17:48:40 60° W 17:52:56 10° S
Cosmos 1812 4.2 17:47:22 10° NNE 17:49:58 17° ENE 17:52:34 10° ESE
Cosmos 1802 Rocket 4.2 17:43:58 10° SSE 17:49:59 52° E 17:56:09 10° NNE
Cosmos 1939 Rocket 3.5 17:46:14 10° SE 17:50:01 36° ENE 17:53:49 10° N
Cosmos 2369 Rocket 3.8 17:49:22 10° SE 17:52:06 14° E 17:54:50 10° ENE
Cosmos 1500 Rocket 3.6 17:47:39 10° S 17:52:07 88° E 17:56:37 10° N
Cosmos 1707 Rocket 4.3 17:49:01 10° N 17:52:58 31° ENE 17:56:54 10° SE
Lacrosse 5 rocket 2.2 17:50:33 10° WSW 17:54:51 52° NNW 17:59:20 10° NE
Cosmos 1992 Rocket 4.1 17:50:40 10° S 17:55:46 56° ESE 18:00:54 10° NNE
Meteor 1-27 Rocket 4.5 17:52:40 10° N 17:57:25 29° ENE 18:02:12 10° SE
STARLINK-42 4.5 17:55:08 10° S 17:57:47 23° SE 18:00:11 11° E
Cosmos 2082 Rocket 2.5 17:52:17 10° NNW 17:57:56 77° WSW 18:03:35 10° SSE
Cosmos 1486 Rocket 4.5 17:53:24 10° NNW 17:58:36 68° WSW 18:03:46 10° S
STARLINK-80 3.5 17:57:47 10° WSW 18:01:36 76° NNW 18:05:24 10° ENE
Cosmos 1743 Rocket 4.1 17:59:57 10° SSW 18:04:19 64° W 18:08:40 10° N
Cosmos 292 Rocket 3.8 18:01:09 10° S 18:05:51 57° ESE 18:10:35 10° NNE
Cosmos 1238 Rocket 4.0 18:02:53 10° S 18:08:52 65° E 18:15:27 10° NNE
CZ-2C R/B 4.5 18:05:09 10° ESE 18:09:25 22° ENE 18:13:41 10° NNE
Cosmos 1354 Rocket 4.0 18:04:32 10° NNW 18:09:53 79° ENE 18:15:09 10° SSE
STARLINK-60 4.3 18:07:19 10° NW 18:10:15 28° N 18:12:25 15° ENE
H-2A R/B 3.2 18:06:56 10° ESE 18:11:06 24° ENE 18:15:20 10° N
Meteor 2-3 Rocket 4.3 18:06:13 10° SSW 18:11:44 61° WNW 18:17:20 10° N
Cosmos 1833 Rocket 4.3 18:08:18 10° NW 18:13:29 38° WSW 18:18:38 10° S
STARLINK-43 4.3 18:11:10 10° W 18:14:41 40° NNW 18:17:45 13° NE
HJ-1C 4.2 18:13:09 10° SE 18:16:04 29° ENE 18:18:59 10° N
Cosmos 2016 Rocket 3.9 18:11:11 10° S 18:17:13 70° E 18:23:19 10° NNE
SL-27 R/B 3.6 18:16:18 10° N 18:18:58 22° ENE 18:19:54 19° E
STARLINK-64 4.1 18:18:23 10° SSW 18:21:39 34° SE 18:23:30 20° E
Ariane Rocket 3.3 18:22:39 10° SE 18:27:27 43° ENE 18:32:17 10° N
YAOGAN 1 2.8 18:24:01 10° S 18:28:19 74° WSW 18:32:40 10° NNW
CSL-04 Rocket 3.8 18:24:24 10° SSE 18:29:58 85° WSW 18:35:31 10° NNW
Cosmos 921 Rocket 3.7 18:27:05 10° SSE 18:31:08 33° E 18:35:12 10° NE
DMSP B5D1-3 4.5 18:26:03 10° NNE 18:31:10 65° ESE 18:36:16 10° S
STARLINK-61 3.6 18:28:02 10° SW 18:31:52 56° SE 18:33:58 24° ENE
USA 234 4.0 18:27:26 16° ENE 18:32:11 38° N 18:38:06 10° NW
USA 229 DEB 3.8 18:28:25 10° S 18:34:37 48° ESE 18:40:52 11° NE
USA 229 3.9 18:28:32 10° S 18:34:44 48° ESE 18:40:55 11° NE
ADEOS Rocket 3.6 18:27:16 10° NNE 18:34:57 67° E 18:42:40 10° S
Cosmos 2278 Rocket 3.9 18:30:01 10° WSW 18:35:03 32° NW 18:40:07 10° NNE
Cosmos 2233 Rocket 4.1 18:29:20 10° SSE 18:35:12 50° E 18:41:08 10° NNE
ARGOS 3.8 18:32:57 14° ESE 18:36:59 33° ENE 18:41:46 10° N
Cosmos 1633 Rocket 3.1 18:35:22 10° S 18:39:35 54° E 18:43:50 10° NNE
Abrixas rocket 3.7 18:37:25 10° W 18:40:02 28° SSW 18:41:55 15° SSE
STARLINK-1028 4.5 18:37:55 10° S 18:40:00 20° SE 18:40:00 20° SE
STARLINK-1048 4.5 18:38:11 10° S 18:40:18 21° SE 18:40:18 21° SE
STARLINK-1021 4.5 18:38:25 10° S 18:40:28 20° SSE 18:40:28 20° SSE
STARLINK-48 3.8 18:37:30 10° WSW 18:41:22 62° NNW 18:43:33 24° NE
STARLINK-1049 4.4 18:39:01 10° S 18:41:08 21° SE 18:41:08 21° SE
Cosmos 1666 Rocket 3.5 18:37:11 10° S 18:41:37 70° E 18:46:05 10° NNE
NOSS 3-1 (A) 4.0 18:37:14 10° S 18:42:00 31° ESE 18:44:29 23° ENE
STARLINK-1051 4.4 18:39:38 10° S 18:41:41 21° SSE 18:41:41 21° SSE
STARLINK-1019 4.4 18:39:55 10° S 18:41:57 21° SSE 18:41:57 21° SSE
STARLINK-1012 4.4 18:40:51 10° S 18:42:53 21° SSE 18:42:53 21° SSE
Lacrosse 4 Rocket 1.6 18:39:13 10° SW 18:43:24 75° WNW 18:47:43 10° NNE
STARLINK 1040 4.2 18:41:18 10° SSW 18:43:08 22° SSE 18:43:08 22° SSE
STARLINK-1026 4.4 18:42:27 10° SSW 18:44:32 22° SSE 18:44:32 22° SSE
Meteor 1-10 Rocket 4.4 18:39:24 10° NNW 18:45:04 77° W 18:50:37 10° S
SJ-6B 3.9 18:45:54 24° NE 18:45:54 24° NE 18:48:15 10° N
STARLINK-1013 4.4 18:43:24 10° SSW 18:45:29 22° SSE 18:45:29 22° SSE
STARLINK-1009 4.4 18:44:19 10° SSW 18:46:23 23° SSE 18:46:23 23° SSE
STARLINK-1015 4.4 18:45:08 10° SSW 18:47:13 23° SSE 18:47:13 23° SSE
SL-4 R/B 2.6 18:46:22 10° WNW 18:51:04 64° SSW 18:53:45 23° SE
SPOT 3 Rocket 4.3 18:50:00 28° E 18:51:10 31° ENE 18:55:43 10° N
CRYOSAT 2 4.3 18:46:25 10° SSE 18:51:17 75° E 18:56:12 10° N
Cosmos 1633 4.1 18:48:02 10° SW 18:51:22 37° WNW 18:54:45 10° N
Cosmos 44 3.9 18:47:33 10° NNW 18:51:30 31° NE 18:52:10 30° ENE
Cosmos 1862 3.5 18:47:31 10° SSW 18:51:30 72° W 18:55:30 10° N
STARLINK-24 3.8 18:48:18 10° SW 18:52:11 49° SE 18:53:07 39° E
Resurs 01 Rocket 3.8 18:56:16 12° NNE 18:56:16 12° NNE 18:56:57 10° NNE
FALCON 9 DEB 4.1 18:54:50 10° NW 18:58:00 33° NNE 18:58:18 32° NNE
Cosmos 2242 Rocket 4.0 18:53:49 10° N 18:58:04 39° ENE 18:58:26 38° E
STARLINK-81 3.7 18:56:00 10° SW 18:59:54 51° SE 19:00:27 47° ESE
STARLINK-26 3.8 18:57:23 10° W 19:00:47 50° NNW 19:01:39 39° NNE
STARLINK-54 3.6 18:57:47 10° SW 19:01:44 57° SE 19:02:20 50° ESE
STARLINK-77 3.6 18:59:14 10° SW 19:03:10 54° SE 19:03:36 51° ESE
STARLINK-25 3.6 19:00:56 10° SW 19:04:52 56° SE 19:05:15 53° ESE
STARLINK-71 3.5 19:02:43 10° SW 19:06:41 63° SE 19:07:07 58° ESE
STARLINK-79 3.5 19:04:13 10° SW 19:08:10 59° SE 19:08:26 57° ESE
Cosmos 1943 Rocket 2.0 19:03:02 10° SSW 19:08:35 70° ESE 19:13:26 14° NNE
MOS 1 4.2 19:04:01 10° SSE 19:09:39 74° ENE 19:15:19 10° NNW
STARLINK-78 3.5 19:05:47 10° SW 19:09:44 61° SE 19:09:58 60° SE
STARLINK-75 3.0 19:07:34 10° WSW 19:11:00 86° NNW 19:11:02 85° NNW
STARLINK-29 4.2 19:08:01 10° NW 19:10:54 33° N 19:10:54 33° N
STARLINK-57 3.4 19:07:34 10° SW 19:11:33 65° SE 19:11:45 64° SE
STARLINK-49 3.5 19:09:06 10° SW 19:13:05 64° SE 19:13:10 64° SE
STARLINK-33 3.1 19:10:14 10° WSW 19:13:17 71° WNW 19:13:17 71° WNW
STARLINK-27 3.4 19:10:48 10° SW 19:14:47 66° SE 19:14:49 66° SE
STARLINK-22 3.2 19:12:06 10° WSW 19:15:12 70° SW 19:15:12 70° SW
STARLINK-66 3.3 19:12:23 10° WSW 19:15:23 66° WNW 19:15:23 66° WNW
STARLINK-74 3.4 19:12:25 10° SW 19:16:23 68° SSE 19:16:23 68° SSE
STARLINK-41 3.2 19:13:31 10° WSW 19:16:38 71° WSW 19:16:38 71° WSW
STARLINK-55 3.4 19:14:05 10° WSW 19:17:01 62° WNW 19:17:01 62° WNW
CZ-4 R/B 4.4 19:14:57 10° SW 19:17:50 18° W 19:20:43 10° NW
STARLINK-39 3.4 19:14:00 10° SW 19:17:55 69° SSE 19:17:55 69° SSE
STARLINK-28 3.5 19:15:44 10° WSW 19:18:38 57° WNW 19:18:38 57° WNW
STARLINK-31 3.5 19:15:42 10° SW 19:19:34 71° SSE 19:19:34 71° SSE
STARLINK-52 4.5 19:17:06 10° NW 19:19:36 31° N 19:19:36 31° N
Cosmos 1470 Rocket 3.4 19:17:06 10° S 19:21:26 83° E 19:25:50 10° N
STARLINK-69 3.4 19:17:26 10° SW 19:21:20 77° S 19:21:20 77° S
STARLINK-21 3.5 19:19:02 10° SW 19:22:47 72° S 19:22:47 72° S
STARLINK-45 3.5 19:20:53 10° SW 19:24:40 78° SSW 19:24:40 78° SSW
Cosmos 1812 4.1 19:22:20 10° NNW 19:25:58 39° W 19:29:35 10° SSW
STARLINK-70 3.6 19:22:27 10° SW 19:26:09 74° SW 19:26:09 74° SW
ARGOS Delta rocket 4.4 19:27:54 39° NNE 19:27:54 39° NNE 19:30:52 10° N
Cosmos 1862 Rocket 3.9 19:23:16 10° NNW 19:27:34 62° W 19:31:34 12° S
STARLINK-58 3.8 19:24:02 10° WSW 19:26:53 54° WSW 19:26:53 54° WSW
STARLINK-76 3.6 19:23:59 10° SW 19:27:34 69° SW 19:27:34 69° SW
Cosmos 1777 Rocket 4.3 19:23:43 10° NNW 19:28:59 65° WSW 19:32:50 18° S
STARLINK-62 3.9 19:25:55 10° WSW 19:28:42 52° WSW 19:28:42 52° WSW
STARLINK-23 3.7 19:25:38 10° SW 19:29:09 67° SW 19:29:09 67° SW
STARLINK-34 4.0 19:27:10 10° WSW 19:29:53 50° WSW 19:29:53 50° WSW
STARLINK-32 3.8 19:27:17 10° WSW 19:30:45 65° SW 19:30:45 65° SW
Cosmos 1833 4.2 19:26:27 10° NNW 19:32:11 59° ENE 19:32:37 58° E
STARLINK-40 3.8 19:28:55 10° WSW 19:32:19 62° SW 19:32:19 62° SW
Cosmos 2285 Rocket 3.9 19:27:27 10° NNW 19:33:51 82° ENE 19:36:24 39° SSE
STARLINK-42 4.5 19:30:42 10° WSW 19:32:55 37° W 19:32:55 37° W
STARLINK-44 3.9 19:30:33 10° WSW 19:33:53 60° WSW 19:33:53 60° WSW
Lacrosse 5 rocket 3.3 19:31:16 10° WNW 19:34:55 23° N 19:35:54 22° N
Cosmos 2369 Rocket 2.1 19:29:34 10° SSW 19:35:13 88° ESE 19:38:21 28° NNE
Cosmos 1464 Rocket 4.0 19:29:04 10° S 19:35:15 58° E 19:41:30 10° NNE
STARLINK-37 4.0 19:32:14 10° WSW 19:35:33 60° WSW 19:35:33 60° WSW
NOSS 3-1 (C) 3.4 19:31:55 10° SW 19:37:27 75° NW 19:40:53 28° NNE
STARLINK-36 4.1 19:33:53 10° WSW 19:37:05 56° WSW 19:37:05 56° WSW
USA 267 3.3 19:38:57 52° ESE 19:39:38 54° SE 19:46:00 10° SSW
STARLINK-68 4.1 19:35:44 10° WSW 19:38:58 55° WSW 19:38:58 55° WSW
STARLINK-63 4.2 19:37:18 10° WSW 19:40:26 52° WSW 19:40:26 52° WSW
STARLINK-35 4.3 19:38:52 10° WSW 19:41:53 49° WSW 19:41:53 49° WSW
STARLINK-51 4.4 19:40:33 10° WSW 19:43:30 47° WSW 19:43:30 47° WSW
Nadezhda 4 Rocket 4.4 19:38:38 10° N 19:43:39 46° NE 19:43:39 46° NE
STARLINK-30 4.5 19:42:11 10° WSW 19:45:04 45° WSW 19:45:04 45° WSW
CZ-2C R/B 3.5 19:44:51 22° S 19:48:43 72° WSW 19:54:31 10° NNW
Cosmos 2263 4.1 19:42:56 10° SSW 19:48:44 82° ESE 19:49:08 76° ENE
H-2A R/B 2.7 19:45:44 15° S 19:50:06 57° W 19:55:28 10° NNW
SL-08 RB Rocket 4.3 19:52:46 49° NNW 19:52:46 49° NNW 19:56:06 10° NNW
SJ 16-02 3.7 20:04:20 10° N 20:05:16 16° N 20:05:16 16° N
USA 234 3.2 20:14:46 69° NNE 20:14:46 69° NNE 20:21:07 10° NW
ARGOS 4.3 20:14:27 24° SSW 20:17:08 40° W 20:22:14 10° NNW
Cosmos 2297 Rocket 4.3 20:13:19 10° N 20:14:56 16° N 20:14:56 16° N
Lacrosse 4 Rocket 4.3 20:20:42 10° WNW 20:22:54 14° NW 20:24:13 12° NNW
USA 229 DEB 4.5 20:19:18 10° WSW 20:25:37 46° NW 20:28:22 31° NNE
USA 229 4.5 20:19:24 10° WSW 20:25:43 46° NW 20:28:25 32° N
Resurs 01 Rocket 4.2 20:33:50 15° NNW 20:33:50 15° NNW 20:34:40 10° NNW
NOSS 3-1 (A) 4.0 20:26:57 10° WSW 20:32:01 53° WNW 20:32:01 53° WNW
Cosmos 2227 Rocket 4.4 20:30:40 10° N 20:32:00 15° N 20:32:00 15° N
Cosmos 1943 Rocket 4.2 20:48:28 10° W 20:52:52 23° NW 20:55:03 19° NNW
CENTAUR R/B 4.2 20:54:27 10° NW 20:59:54 32° N 20:59:54 32° N
ATLAS 3B R/B 4.4 21:01:23 10° NNW 21:04:54 22° N 21:04:54 22° N
Cosmos 2369 Rocket 4.4 21:15:57 10° W 21:20:04 20° NW 21:20:16 20° NW
